Time,TemperatureF,DewpointF,PressureIn,WindDirection,WindDirectionDegrees,WindSpeedMPH,WindSpeedGustMPH,Humidity,HourlyPrecipIn,Conditions,Clouds,dailyrainin,SolarRadiationWatts/m^2,SoftwareType,DateUTC
2013-02-21 00:00:00,21.5,12.9,30.41,ESE,102,1.4,4.6,69,0.00,OVC,,0.00,0.0,WeatherDisplay:10.37,2013-02-21 06:00:00,
2013-02-21 00:05:00,21.5,12.9,30.41,NNE,25,2.3,3.5,69,0.00,OVC,,0.00,0.0,WeatherDisplay:10.37,2013-02-21 06:05:00,
2013-02-21 00:11:00,21.5,13.2,30.41,NNE,18,0.4,2.0,70,0.00,OVC,,0.00,0.0,WeatherDisplay:10.37,2013-02-21 06:11:00,
2013-02-21 00:16:00,21.5,13.2,30.41,NE,50,1.0,5.0,70,0.00,SCT,SCT,0.00,0.0,WeatherDisplay:10.37,2013-02-21 06:16:00,
2013-02-21 00:21:00,21.5,13.2,30.41,NE,41,0.3,2.3,70,0.00,SCT,,0.00,0.0,WeatherDisplay:10.37,2013-02-21 06:21:00,
2013-02-21 00:26:00,21.6,13.6,30.41,NE,41,0.0,0.0,71,0.00,SCT,,0.00,0.0,WeatherDisplay:10.37,2013-02-21 06:26:00,
2013-02-21 00:31:00,21.6,13.6,30.41,ESE,120,0.0,2.3,71,0.00,SCT,,0.00,0.0,WeatherDisplay:10.37,2013-02-21 06:31:00,
2013-02-21 00:36:00,21.5,13.5,30.41,NNE,32,0.9,3.5,71,0.00,SCT,,0.00,0.0,WeatherDisplay:10.37,2013-02-21 06:36:00,
2013-02-21 00:42:00,21.4,13.8,30.41,NNE,32,0.4,3.5,72,0.00,SCT,,0.00,0.0,WeatherDisplay:10.37,2013-02-21 06:42:00,
2013-02-21 00:47:00,21.3,13.7,30.40,NNE,28,0.9,4.0,72,0.00,SCT,,0.00,0.0,WeatherDisplay:10.37,2013-02-21 06:47:00,
2013-02-21 00:52:00,21.3,13.7,30.41,NNE,28,1.8,4.6,72,0.00,SCT,,0.00,0.0,WeatherDisplay:10.37,2013-02-21 06:52:00,
2013-02-21 00:57:00,21.2,13.9,30.41,NE,48,0.4,2.3,73,0.00,SCT,,0.00,0.0,WeatherDisplay:10.37,2013-02-21 06:57:00,
2013-02-21 01:03:00,21.1,13.8,30.41,NE,50,0.4,2.3,73,0.00,SCT,,0.00,0.0,WeatherDisplay:10.37,2013-02-21 07:03:00,
2013-02-21 01:08:00,21.1,14.1,30.41,NE,50,0.0,0.0,74,0.00,SCT,,0.00,0.0,WeatherDisplay:10.37,2013-02-21 07:08:00,
2013-02-21 01:13:00,21.0,14.0,30.41,NE,50,0.0,0.0,74,0.00,SCT,,0.00,0.0,WeatherDisplay:10.37,2013-02-21 07:13:00,
2013-02-21 01:18:00,21.0,14.0,30.41,ENE,76,0.8,0.0,74,0.00,SCT,,0.00,0.0,WeatherDisplay:10.37,2013-02-21 07:18:00,
2013-02-21 01:24:00,21.0,14.3,30.41,NE,46,0.8,3.5,75,0.00,SCT,,0.00,0.0,WeatherDisplay:10.37,2013-02-21 07:24:00,
2013-02-21 01:29:00,21.0,14.3,30.41,ENE,69,0.5,2.3,75,0.00,SCT,,0.00,0.0,WeatherDisplay:10.37,2013-02-21 07:29:00,
2013-02-21 01:34:00,21.0,14.3,30.42,East,82,1.0,4.6,75,0.00,SCT,,0.00,0.0,WeatherDisplay:10.37,2013-02-21 07:34:00,
2013-02-21 01:39:00,21.1,14.4,30.41,ENE,59,0.8,3.5,75,0.00,SCT,,0.00,0.0,WeatherDisplay:10.37,2013-02-21 07:39:00,
2013-02-21 01:45:00,21.1,14.4,30.41,ENE,67,0.1,1.0,75,0.00,SCT,,0.00,0.0,WeatherDisplay:10.37,2013-02-21 07:45:00,
2013-02-21 01:50:00,21.1,14.7,30.42,NE,45,0.5,3.5,76,0.00,SCT,,0.00,0.0,WeatherDisplay:10.37,2013-02-21 07:50:00,
2013-02-21 01:55:00,21.1,14.7,30.41,NNE,32,0.4,3.0,76,0.00,SCT,,0.00,0.0,WeatherDisplay:10.37,2013-02-21 07:55:00,
2013-02-21 02:01:00,21.1,14.7,30.42,ENE,59,0.5,2.3,76,0.00,SCT,,0.00,0.0,WeatherDisplay:10.37,2013-02-21 08:01:00,
2013-02-21 02:06:00,21.1,14.7,30.42,NE,49,1.0,5.0,76,0.00,SCT,SCT,0.00,0.0,WeatherDisplay:10.37,2013-02-21 08:06:00,
2013-02-21 02:11:00,21.1,14.7,30.41,NE,39,1.1,4.6,76,0.00,SCT,,0.00,0.0,WeatherDisplay:10.37,2013-02-21 08:11:00,
2013-02-21 02:16:00,21.0,14.6,30.40,NE,53,2.3,4.6,76,0.00,SCT,,0.00,0.0,WeatherDisplay:10.37,2013-02-21 08:16:00,
2013-02-21 02:21:00,21.0,14.6,30.40,NE,49,1.4,3.5,76,0.00,SCT,,0.00,0.0,WeatherDisplay:10.37,2013-02-21 08:21:00,
2013-02-21 02:26:00,20.9,14.8,30.40,ENE,61,0.6,2.3,77,0.00,SCT,,0.00,0.0,WeatherDisplay:10.37,2013-02-21 08:26:00,
2013-02-21 02:32:00,20.9,14.8,30.40,ENE,64,0.5,2.3,77,0.00,SCT,,0.00,0.0,WeatherDisplay:10.37,2013-02-21 08:32:00,
2013-02-21 02:37:00,20.8,14.7,30.40,ENE,61,0.3,2.3,77,0.00,SCT,,0.00,0.0,WeatherDisplay:10.37,2013-02-21 08:37:00,
2013-02-21 02:42:00,20.8,14.7,30.39,NE,45,0.7,3.5,77,0.00,SCT,,0.00,0.0,WeatherDisplay:10.37,2013-02-21 08:42:00,
2013-02-21 02:47:00,20.7,14.6,30.39,NNE,24,2.5,4.6,77,0.00,SCT,,0.00,0.0,WeatherDisplay:10.37,2013-02-21 08:47:00,
2013-02-21 02:53:00,20.7,14.6,30.39,NE,37,1.6,3.5,77,0.00,SCT,,0.00,0.0,WeatherDisplay:10.37,2013-02-21 08:53:00,
2013-02-21 02:58:00,20.7,14.6,30.38,NE,55,0.6,2.3,77,0.00,SCT,,0.00,0.0,WeatherDisplay:10.37,2013-02-21 08:58:00,
2013-02-21 03:03:00,20.7,14.6,30.38,NNE,23,1.0,5.8,77,0.00,SCT,,0.00,0.0,WeatherDisplay:10.37,2013-02-21 09:03:00,
2013-02-21 03:08:00,20.6,14.8,30.37,NE,43,2.0,8.1,78,0.00,SCT,,0.00,0.0,WeatherDisplay:10.37,2013-02-21 09:08:00,
2013-02-21 03:14:00,20.6,14.8,30.37,NNE,15,0.0,1.2,78,0.00,SCT,,0.00,0.0,WeatherDisplay:10.37,2013-02-21 09:14:00,
2013-02-21 03:19:00,20.5,14.7,30.36,NE,54,1.4,3.5,78,0.00,SCT,,0.00,0.0,WeatherDisplay:10.37,2013-02-21 09:19:00,
2013-02-21 03:24:00,20.4,14.6,30.35,NNE,33,1.4,6.9,78,0.00,SCT,,0.00,0.0,WeatherDisplay:10.37,2013-02-21 09:24:00,
2013-02-21 03:29:00,20.3,14.5,30.34,East,85,1.8,2.3,78,0.00,SCT,,0.00,0.0,WeatherDisplay:10.37,2013-02-21 09:29:00,
2013-02-21 03:35:00,20.2,14.4,30.34,ENE,59,0.7,4.6,78,0.00,SCT,,0.00,0.0,WeatherDisplay:10.37,2013-02-21 09:35:00,
2013-02-21 03:40:00,20.1,14.3,30.33,ENE,61,1.6,3.5,78,0.00,SCT,,0.00,0.0,WeatherDisplay:10.37,2013-02-21 09:40:00,
2013-02-21 03:45:00,20.0,14.5,30.35,ESE,113,2.0,3.5,79,0.00,SCT,,0.00,0.0,WeatherDisplay:10.37,2013-02-21 09:45:00,
2013-02-21 03:50:00,19.9,14.4,30.33,ESE,104,1.3,3.5,79,0.00,SCT,,0.00,0.0,WeatherDisplay:10.37,2013-02-21 09:50:00,
2013-02-21 03:56:00,19.8,14.3,30.32,ENE,73,2.0,7.0,79,0.00,SCT,SCT,0.00,0.0,WeatherDisplay:10.37,2013-02-21 09:56:00,
2013-02-21 04:01:00,19.8,14.6,30.32,NE,40,1.4,3.5,80,0.00,SCT,,0.00,0.0,WeatherDisplay:10.37,2013-02-21 10:01:00,
2013-02-21 04:06:00,19.7,14.5,30.33,NNE,14,0.0,0.0,80,0.00,SCT,,0.00,0.0,WeatherDisplay:10.37,2013-02-21 10:06:00,
2013-02-21 04:11:00,19.7,14.5,30.33,ESE,111,0.8,3.5,80,0.00,SCT,,0.00,0.0,WeatherDisplay:10.37,2013-02-21 10:11:00,
2013-02-21 04:16:00,19.6,14.4,30.36,NE,51,0.0,3.5,80,0.00,SCT,,0.00,0.0,WeatherDisplay:10.37,2013-02-21 10:16:00,
2013-02-21 04:22:00,19.7,14.8,30.35,NNE,20,1.3,3.5,81,0.00,SCT,,0.00,0.0,WeatherDisplay:10.37,2013-02-21 10:22:00,
2013-02-21 04:27:00,19.8,14.9,30.35,ENE,58,1.6,4.6,81,0.00,SCT,,0.00,0.0,WeatherDisplay:10.37,2013-02-21 10:27:00,
2013-02-21 04:32:00,19.9,15.0,30.35,NE,56,0.9,3.5,81,0.00,SCT,,0.00,0.0,WeatherDisplay:10.37,2013-02-21 10:32:00,
2013-02-21 04:37:00,19.9,15.0,30.34,East,84,1.1,4.6,81,0.00,SCT,,0.00,0.0,WeatherDisplay:10.37,2013-02-21 10:37:00,
2013-02-21 04:43:00,19.9,15.0,30.33,NNE,21,1.7,6.9,81,0.00,SCT,,0.00,0.0,WeatherDisplay:10.37,2013-02-21 10:43:00,
2013-02-21 04:48:00,19.8,14.9,30.34,NE,43,0.7,2.3,81,0.00,SCT,,0.00,0.0,WeatherDisplay:10.37,2013-02-21 10:48:00,
2013-02-21 04:53:00,19.8,14.9,30.34,NE,42,1.7,3.5,81,0.00,SCT,,0.00,0.0,WeatherDisplay:10.37,2013-02-21 10:53:00,
2013-02-21 04:58:00,19.8,14.9,30.34,East,91,1.4,5.8,81,0.00,SCT,,0.00,0.0,WeatherDisplay:10.37,2013-02-21 10:58:00,
2013-02-21 05:04:00,19.8,15.2,30.34,North,11,1.2,3.5,82,0.00,SCT,,0.00,0.0,WeatherDisplay:10.37,2013-02-21 11:04:00,
2013-02-21 05:09:00,19.8,15.2,30.35,NE,44,2.1,4.6,82,0.00,SCT,,0.00,0.0,WeatherDisplay:10.37,2013-02-21 11:09:00,
2013-02-21 05:14:00,19.8,15.2,30.34,ENE,62,3.6,9.2,82,0.00,SCT,,0.00,0.0,WeatherDisplay:10.37,2013-02-21 11:14:00,
2013-02-21 05:19:00,19.8,15.2,30.33,North,11,0.3,4.6,82,0.00,SCT,,0.00,0.0,WeatherDisplay:10.37,2013-02-21 11:19:00,
2013-02-21 05:25:00,19.7,15.1,30.33,NNE,30,3.1,6.9,82,0.00,SCT,,0.00,0.0,WeatherDisplay:10.37,2013-02-21 11:25:00,
2013-02-21 05:30:00,19.7,15.4,30.31,NE,47,3.4,5.0,83,0.00,SCT,,0.00,0.0,WeatherDisplay:10.37,2013-02-21 11:30:00,
2013-02-21 05:35:00,19.6,15.3,30.31,ENE,70,4.0,9.2,83,0.00,SCT,,0.00,0.0,WeatherDisplay:10.37,2013-02-21 11:35:00,
2013-02-21 05:40:00,19.6,15.3,30.31,ENE,65,3.0,10.4,83,0.00,SCT,,0.00,0.0,WeatherDisplay:10.37,2013-02-21 11:40:00,
2013-02-21 05:46:00,19.5,15.2,30.31,NE,39,3.0,13.0,83,0.00,SCT,SCT,0.00,0.0,WeatherDisplay:10.37,2013-02-21 11:46:00,
2013-02-21 05:51:00,19.5,15.2,30.32,NE,54,1.8,5.0,83,0.00,SCT,,0.00,0.0,WeatherDisplay:10.37,2013-02-21 11:51:00,
2013-02-21 05:56:00,19.5,15.2,30.32,NE,34,1.7,3.5,83,0.00,SCT,,0.00,0.0,WeatherDisplay:10.37,2013-02-21 11:56:00,
2013-02-21 06:01:00,19.6,15.0,30.33,NNE,31,3.0,8.1,82,0.00,SCT,,0.00,0.0,WeatherDisplay:10.37,2013-02-21 12:01:00,
2013-02-21 06:06:00,19.6,15.0,30.32,NE,48,2.7,9.2,82,0.00,SCT,,0.00,0.0,WeatherDisplay:10.37,2013-02-21 12:06:00,
2013-02-21 06:12:00,19.6,14.7,30.32,ENE,63,5.2,9.2,81,0.00,SCT,,0.00,0.0,WeatherDisplay:10.37,2013-02-21 12:12:00,
2013-02-21 06:17:00,19.5,14.6,30.33,NE,46,2.6,3.5,81,0.00,SCT,,0.00,0.0,WeatherDisplay:10.37,2013-02-21 12:17:00,
2013-02-21 06:22:00,19.5,14.6,30.33,NE,47,4.2,8.1,81,0.00,SCT,,0.00,0.0,WeatherDisplay:10.37,2013-02-21 12:22:00,
2013-02-21 06:27:00,19.5,14.3,30.34,NNE,28,2.9,6.9,80,0.00,SCT,,0.00,0.0,WeatherDisplay:10.37,2013-02-21 12:27:00,
2013-02-21 06:33:00,19.5,14.3,30.33,NNE,30,2.4,4.6,80,0.00,SCT,,0.00,0.0,WeatherDisplay:10.37,2013-02-21 12:33:00,
2013-02-21 06:38:00,19.5,14.0,30.33,NNE,22,3.5,9.0,79,0.00,SCT,,0.00,0.0,WeatherDisplay:10.37,2013-02-21 12:38:00,
2013-02-21 06:43:00,19.5,14.0,30.33,East,79,2.6,6.9,79,0.00,SCT,,0.00,0.0,WeatherDisplay:10.37,2013-02-21 12:43:00,
2013-02-21 06:48:00,19.5,13.8,30.32,NNW,345,0.8,3.5,78,0.00,SCT,,0.00,0.0,WeatherDisplay:10.37,2013-02-21 12:48:00,
2013-02-21 06:54:00,19.5,13.8,30.33,NNE,24,1.8,3.0,78,0.00,SCT,,0.00,0.0,WeatherDisplay:10.37,2013-02-21 12:54:00,
2013-02-21 06:59:00,19.6,13.9,30.32,ENE,58,0.1,3.5,78,0.00,SCT,,0.00,0.0,WeatherDisplay:10.37,2013-02-21 12:59:00,
2013-02-21 07:04:00,19.6,13.9,30.33,East,82,1.1,3.5,78,0.00,OVC,,0.00,0.0,WeatherDisplay:10.37,2013-02-21 13:04:00,
2013-02-21 07:09:00,19.6,13.6,30.33,East,100,1.6,5.0,77,0.00,OVC,,0.00,0.0,WeatherDisplay:10.37,2013-02-21 13:09:00,
2013-02-21 07:15:00,19.6,13.6,30.32,NE,46,3.4,6.9,77,0.00,OVC,,0.00,7.0,WeatherDisplay:10.37,2013-02-21 13:15:00,
2013-02-21 07:20:00,19.7,13.7,30.32,ENE,73,2.4,6.9,77,0.00,OVC,,0.00,9.8,WeatherDisplay:10.37,2013-02-21 13:20:00,
2013-02-21 07:25:00,19.7,13.7,30.33,NE,55,1.3,4.6,77,0.00,OVC,,0.00,12.6,WeatherDisplay:10.37,2013-02-21 13:25:00,
2013-02-21 07:30:00,19.7,13.7,30.33,ENE,57,2.5,5.8,77,0.00,OVC,,0.00,19.6,WeatherDisplay:10.37,2013-02-21 13:30:00,
2013-02-21 07:36:00,19.8,13.5,30.33,ENE,61,2.0,9.0,76,0.00,OVC,OVC,0.00,25.2,WeatherDisplay:10.37,2013-02-21 13:36:00,
2013-02-21 07:41:00,19.8,13.5,30.33,ENE,78,1.2,3.5,76,0.00,OVC,,0.00,26.6,WeatherDisplay:10.37,2013-02-21 13:41:00,
2013-02-21 07:46:00,19.9,13.6,30.33,NE,55,0.0,12.0,76,0.00,OVC,OVC,0.00,29.4,WeatherDisplay:10.37,2013-02-21 13:46:00,
2013-02-21 07:51:00,19.9,13.6,30.32,NE,36,1.4,5.0,76,0.00,OVC,,0.00,32.2,WeatherDisplay:10.37,2013-02-21 13:51:00,
2013-02-21 07:56:00,20.0,13.3,30.31,NE,46,3.9,6.9,75,0.00,OVC,,0.00,36.4,WeatherDisplay:10.37,2013-02-21 13:56:00,
2013-02-21 08:01:00,20.0,13.3,30.31,North,5,4.5,11.5,75,0.00,OVC,,0.00,39.2,WeatherDisplay:10.37,2013-02-21 14:01:00,
2013-02-21 08:06:00,20.0,13.3,30.31,NE,50,3.0,6.0,75,0.00,OVC,,0.00,44.8,WeatherDisplay:10.37,2013-02-21 14:06:00,
2013-02-21 08:12:00,20.1,13.1,30.31,NE,53,3.2,6.9,74,0.00,OVC,,0.00,49.0,WeatherDisplay:10.37,2013-02-21 14:12:00,
2013-02-21 08:17:00,20.1,13.1,30.32,ENE,75,1.7,3.5,74,0.00,OVC,,0.00,54.6,WeatherDisplay:10.37,2013-02-21 14:17:00,
2013-02-21 08:22:00,20.2,13.2,30.32,ENE,65,2.6,4.6,74,0.00,OVC,,0.00,58.8,WeatherDisplay:10.37,2013-02-21 14:22:00,
2013-02-21 08:27:00,20.2,13.2,30.32,ENE,58,1.6,4.6,74,0.00,OVC,,0.00,65.8,WeatherDisplay:10.37,2013-02-21 14:27:00,
2013-02-21 08:33:00,20.3,13.3,30.31,North,5,3.3,5.8,74,0.00,OVC,,0.00,74.2,WeatherDisplay:10.37,2013-02-21 14:33:00,
2013-02-21 08:38:00,20.4,13.1,30.32,East,89,2.9,5.0,73,0.00,OVC,,0.00,78.4,WeatherDisplay:10.37,2013-02-21 14:38:00,
2013-02-21 08:43:00,20.4,13.1,30.32,NNE,30,2.8,5.8,73,0.00,OVC,,0.00,86.8,WeatherDisplay:10.37,2013-02-21 14:43:00,
2013-02-21 08:48:00,20.5,13.2,30.31,ENE,71,3.0,10.4,73,0.00,OVC,,0.00,91.0,WeatherDisplay:10.37,2013-02-21 14:48:00,
2013-02-21 08:54:00,20.7,13.4,30.31,NNE,17,3.0,8.1,73,0.00,OVC,,0.00,96.6,WeatherDisplay:10.37,2013-02-21 14:54:00,
2013-02-21 08:59:00,20.8,13.2,30.31,NE,55,1.9,9.2,72,0.00,OVC,,0.00,107.8,WeatherDisplay:10.37,2013-02-21 14:59:00,
2013-02-21 09:04:00,20.9,13.3,30.31,NE,51,0.8,2.3,72,0.00,OVC,,0.00,98.0,WeatherDisplay:10.37,2013-02-21 15:04:00,
2013-02-21 09:10:00,21.1,13.5,30.32,SE,133,2.9,7.0,72,0.00,OVC,,0.00,93.8,WeatherDisplay:10.37,2013-02-21 15:10:00,
2013-02-21 09:15:00,21.2,13.3,30.31,East,101,5.1,8.1,71,0.00,OVC,,0.00,100.8,WeatherDisplay:10.37,2013-02-21 15:15:00,
2013-02-21 09:20:00,21.4,13.5,30.30,NE,46,5.0,7.0,71,0.00,OVC,,0.00,107.8,WeatherDisplay:10.37,2013-02-21 15:20:00,
2013-02-21 09:25:00,21.5,13.5,30.31,ENE,67,2.6,5.8,71,0.00,OVC,,0.00,110.6,WeatherDisplay:10.37,2013-02-21 15:25:00,
2013-02-21 09:31:00,21.6,13.6,30.31,East,86,3.6,5.8,71,0.00,OVC,,0.00,117.6,WeatherDisplay:10.37,2013-02-21 15:31:00,
2013-02-21 09:36:00,21.7,13.4,30.31,ENE,69,2.0,9.0,70,0.00,OVC,OVC,0.00,120.4,WeatherDisplay:10.37,2013-02-21 15:36:00,
2013-02-21 09:41:00,21.9,13.6,30.32,ESE,113,3.2,11.5,70,0.00,OVC,,0.00,123.2,WeatherDisplay:10.37,2013-02-21 15:41:00,
2013-02-21 09:46:00,21.9,13.3,30.31,ESE,119,4.4,11.5,69,0.00,OVC,,0.00,127.4,WeatherDisplay:10.37,2013-02-21 15:46:00,
2013-02-21 09:51:00,22.0,13.7,30.32,East,80,1.7,6.9,70,0.00,OVC,,0.00,127.4,WeatherDisplay:10.37,2013-02-21 15:51:00,
2013-02-21 09:56:00,22.1,13.5,30.32,ENE,61,3.1,9.2,69,0.00,OVC,,0.00,133.0,WeatherDisplay:10.37,2013-02-21 15:56:00,
2013-02-21 10:02:00,22.2,13.6,30.31,East,86,2.6,8.1,69,0.00,OVC,,0.00,135.8,WeatherDisplay:10.37,2013-02-21 16:02:00,
2013-02-21 10:07:00,22.2,13.6,30.31,NE,50,3.6,10.4,69,0.00,OVC,,0.00,140.0,WeatherDisplay:10.37,2013-02-21 16:07:00,
2013-02-21 10:12:00,22.2,13.6,30.31,SE,132,3.5,12.7,69,0.00,OVC,,0.00,142.8,WeatherDisplay:10.37,2013-02-21 16:12:00,
2013-02-21 10:17:00,22.3,13.7,30.31,NE,48,1.8,4.6,69,0.00,OVC,,0.00,159.6,WeatherDisplay:10.37,2013-02-21 16:17:00,
2013-02-21 10:23:00,22.6,14.0,30.31,ENE,63,1.2,4.6,69,0.00,OVC,,0.00,172.2,WeatherDisplay:10.37,2013-02-21 16:23:00,
2013-02-21 10:28:00,22.7,13.7,30.31,East,94,2.8,5.0,68,0.00,OVC,,0.00,184.8,WeatherDisplay:10.37,2013-02-21 16:28:00,
2013-02-21 10:33:00,22.8,13.8,30.31,ESE,108,1.2,10.4,68,0.00,OVC,,0.00,187.6,WeatherDisplay:10.37,2013-02-21 16:33:00,
2013-02-21 10:38:00,23.0,14.0,30.30,ESE,109,2.1,3.5,68,0.00,OVC,,0.00,179.2,WeatherDisplay:10.37,2013-02-21 16:38:00,
2013-02-21 10:44:00,23.1,13.8,30.30,ENE,78,2.3,4.6,67,0.00,OVC,,0.00,179.2,WeatherDisplay:10.37,2013-02-21 16:44:00,
2013-02-21 10:49:00,23.1,14.1,30.29,NNE,17,3.6,7.0,68,0.00,OVC,,0.00,191.8,WeatherDisplay:10.37,2013-02-21 16:49:00,
2013-02-21 10:54:00,23.2,13.9,30.29,NNE,22,5.2,11.5,67,0.00,OVC,,0.00,201.6,WeatherDisplay:10.37,2013-02-21 16:54:00,
2013-02-21 10:59:00,23.3,14.0,30.28,ENE,61,4.4,6.9,67,0.00,OVC,,0.00,217.0,WeatherDisplay:10.37,2013-02-21 16:59:00,
2013-02-21 11:05:00,23.3,14.0,30.27,ENE,69,3.5,6.9,67,0.00,OVC,,0.00,224.0,WeatherDisplay:10.37,2013-02-21 17:05:00,
2013-02-21 11:10:00,23.5,14.1,30.26,NE,44,5.2,10.4,67,0.00,OVC,,0.00,226.8,WeatherDisplay:10.37,2013-02-21 17:10:00,
2013-02-21 11:15:00,23.8,14.4,30.26,NE,38,3.2,5.0,67,0.00,OVC,,0.00,228.2,WeatherDisplay:10.37,2013-02-21 17:15:00,
2013-02-21 11:21:00,23.9,14.2,30.25,NE,56,3.6,6.9,66,0.00,OVC,,0.00,224.0,WeatherDisplay:10.37,2013-02-21 17:21:00,
2013-02-21 11:26:00,23.9,14.2,30.25,ENE,64,5.0,12.0,66,0.00,OVC,OVC,0.00,224.0,WeatherDisplay:10.37,2013-02-21 17:26:00,
2013-02-21 11:31:00,23.9,14.2,30.24,NE,39,2.0,5.8,66,0.00,OVC,,0.00,221.2,WeatherDisplay:10.37,2013-02-21 17:31:00,
2013-02-21 11:36:00,23.9,14.2,30.23,ENE,59,3.4,5.0,66,0.00,OVC,,0.00,217.0,WeatherDisplay:10.37,2013-02-21 17:36:00,
2013-02-21 11:41:00,24.0,14.3,30.22,NNE,28,3.1,9.2,66,0.00,OVC,,0.00,207.2,WeatherDisplay:10.37,2013-02-21 17:41:00,
2013-02-21 11:46:00,24.1,14.4,30.22,ENE,73,4.2,6.9,66,0.00,OVC,,0.00,194.6,WeatherDisplay:10.37,2013-02-21 17:46:00,
2013-02-21 11:52:00,24.2,14.5,30.22,East,81,2.3,3.5,66,0.00,OVC,,0.00,191.8,WeatherDisplay:10.37,2013-02-21 17:52:00,
2013-02-21 11:57:00,24.3,14.6,30.21,ENE,61,2.0,5.8,66,0.00,OVC,,0.00,211.4,WeatherDisplay:10.37,2013-02-21 17:57:00,
2013-02-21 12:02:00,24.4,14.7,30.21,ENE,72,3.0,6.9,66,0.00,OVC,,0.00,204.4,WeatherDisplay:10.37,2013-02-21 18:02:00,
2013-02-21 12:07:00,24.5,14.4,30.21,NE,46,2.5,4.6,65,0.00,OVC,,0.00,187.6,WeatherDisplay:10.37,2013-02-21 18:07:00,
2013-02-21 12:13:00,24.6,14.9,30.20,ESE,102,4.0,6.9,66,0.00,OVC,,0.00,182.0,WeatherDisplay:10.37,2013-02-21 18:13:00,
2013-02-21 12:18:00,24.6,14.9,30.19,ENE,61,4.7,12.0,66,0.00,OVC,,0.00,197.4,WeatherDisplay:10.37,2013-02-21 18:18:00,
2013-02-21 12:23:00,24.6,14.9,30.19,NE,44,4.5,10.0,66,0.00,OVC,,0.00,214.2,WeatherDisplay:10.37,2013-02-21 18:23:00,
2013-02-21 12:28:00,24.6,14.5,30.18,NNE,31,6.0,13.8,65,0.00,OVC,,0.00,233.8,WeatherDisplay:10.37,2013-02-21 18:28:00,
2013-02-21 12:34:00,24.7,14.9,30.18,NE,39,3.5,5.8,66,0.00,OVC,,0.00,239.4,WeatherDisplay:10.37,2013-02-21 18:34:00,
2013-02-21 12:39:00,24.8,15.0,30.17,North,5,7.1,11.5,66,0.00,OVC,,0.00,214.2,WeatherDisplay:10.37,2013-02-21 18:39:00,
2013-02-21 12:44:00,24.9,15.1,30.17,NE,34,3.6,5.8,66,0.00,OVC,,0.00,275.8,WeatherDisplay:10.37,2013-02-21 18:44:00,
2013-02-21 12:49:00,25.1,15.3,30.17,ENE,68,3.6,7.0,66,0.00,OVC,,0.00,270.2,WeatherDisplay:10.37,2013-02-21 18:49:00,
2013-02-21 12:55:00,25.4,15.6,30.16,NNE,28,5.7,13.8,66,0.00,OVC,,0.00,228.2,WeatherDisplay:10.37,2013-02-21 18:55:00,
2013-02-21 12:56:00,25.7,16.9,30.14,NE,45,3.0,14.0,69,0.00,OVC,OVC,0.00,208.6,WeatherDisplay:10.37,2013-02-21 18:56:00,
2013-02-21 13:00:00,25.4,15.3,30.16,NNE,33,3.2,11.5,65,0.00,OVC,,0.00,221.2,WeatherDisplay:10.37,2013-02-21 19:00:00,
2013-02-21 13:05:00,25.4,15.3,30.16,NE,38,2.9,4.0,65,0.00,OVC,,0.00,207.2,WeatherDisplay:10.37,2013-02-21 19:05:00,
2013-02-21 13:10:00,25.6,15.8,30.16,NE,47,4.0,8.1,66,0.00,OVC,,0.00,177.8,WeatherDisplay:10.37,2013-02-21 19:10:00,
2013-02-21 13:16:00,25.4,15.3,30.16,NE,56,6.0,18.0,65,0.00,OVC,OVC,0.00,172.2,WeatherDisplay:10.37,2013-02-21 19:16:00,
2013-02-21 13:21:00,25.2,15.4,30.16,NE,56,3.3,7.0,66,0.00,OVC,,0.00,175.0,WeatherDisplay:10.37,2013-02-21 19:21:00,
2013-02-21 13:26:00,25.2,15.8,30.16,ENE,71,3.3,9.2,67,0.00,OVC,,0.00,165.2,WeatherDisplay:10.37,2013-02-21 19:26:00,
2013-02-21 13:31:00,25.3,15.9,30.16,East,90,6.7,17.3,67,0.00,OVC,,0.00,155.4,WeatherDisplay:10.37,2013-02-21 19:31:00,
2013-02-21 13:36:00,25.2,15.8,30.15,ENE,76,3.0,12.7,67,0.00,OVC,,0.00,162.4,WeatherDisplay:10.37,2013-02-21 19:36:00,
2013-02-21 13:42:00,25.3,16.2,30.15,ENE,65,5.4,10.4,68,0.00,OVC,,0.00,162.4,WeatherDisplay:10.37,2013-02-21 19:42:00,
2013-02-21 13:47:00,25.4,16.3,30.14,East,82,3.1,4.6,68,0.00,OVC,,0.00,162.4,WeatherDisplay:10.37,2013-02-21 19:47:00,
2013-02-21 13:52:00,25.6,16.8,30.14,ESE,103,3.5,4.6,69,0.00,OVC,,0.00,204.4,WeatherDisplay:10.37,2013-02-21 19:52:00,
2013-02-21 14:02:00,25.8,17.0,30.13,ENE,66,3.0,14.0,69,0.00,OVC,,0.00,211.4,WeatherDisplay:10.37,2013-02-21 20:02:00,
2013-02-21 14:07:00,26.2,17.1,30.12,North,5,4.2,10.0,68,0.00,OVC,,0.00,207.2,WeatherDisplay:10.37,2013-02-21 20:07:00,
2013-02-21 14:12:00,26.2,17.4,30.12,NNE,32,6.4,11.5,69,0.00,OVC,,0.00,152.6,WeatherDisplay:10.37,2013-02-21 20:12:00,
2013-02-21 14:18:00,26.2,17.4,30.12,ENE,59,3.9,8.1,69,0.00,OVC,,0.00,158.2,WeatherDisplay:10.37,2013-02-21 20:18:00,
2013-02-21 14:23:00,26.3,17.8,30.11,ESE,105,5.7,11.5,70,0.00,OVC,,0.00,165.2,WeatherDisplay:10.37,2013-02-21 20:23:00,
2013-02-21 14:28:00,26.5,18.0,30.10,NE,51,8.4,16.1,70,0.00,OVC,,0.00,130.2,WeatherDisplay:10.37,2013-02-21 20:28:00,
2013-02-21 14:34:00,26.5,18.0,30.10,NE,55,4.0,9.2,70,0.00,OVC,,0.00,120.4,WeatherDisplay:10.37,2013-02-21 20:34:00,
2013-02-21 14:39:00,26.5,18.0,30.09,NE,38,7.4,10.4,70,0.00,OVC,,0.00,100.8,WeatherDisplay:10.37,2013-02-21 20:39:00,
2013-02-21 14:44:00,26.5,18.4,30.09,ENE,63,4.3,9.2,71,0.00,OVC,,0.00,84.0,WeatherDisplay:10.37,2013-02-21 20:44:00,
2013-02-21 14:49:00,26.5,18.4,30.09,East,99,1.9,11.5,71,0.00,OVC,,0.00,103.6,WeatherDisplay:10.37,2013-02-21 20:49:00,
2013-02-21 14:55:00,26.6,18.5,30.09,ENE,65,7.8,19.6,71,0.00,OVC,,0.00,123.2,WeatherDisplay:10.37,2013-02-21 20:55:00,
2013-02-21 15:00:00,26.6,18.8,30.08,East,101,5.5,11.5,72,0.00,OVC,,0.00,106.4,WeatherDisplay:10.37,2013-02-21 21:00:00,
2013-02-21 15:05:00,26.2,19.7,30.07,East,82,5.9,10.4,76,0.00,-SN,,0.00,113.4,WeatherDisplay:10.37,2013-02-21 21:05:00,
2013-02-21 15:10:00,25.7,20.4,30.06,NE,44,2.5,12.7,80,0.00,-SN,,0.00,135.8,WeatherDisplay:10.37,2013-02-21 21:10:00,
2013-02-21 15:16:00,25.5,21.1,30.07,NNE,21,4.9,11.0,83,0.00,-SN,,0.00,133.0,WeatherDisplay:10.37,2013-02-21 21:16:00,
2013-02-21 15:21:00,25.3,21.4,30.07,NNE,19,2.4,4.6,85,0.00,-SN,,0.00,116.2,WeatherDisplay:10.37,2013-02-21 21:21:00,
2013-02-21 15:26:00,25.1,21.5,30.08,NNE,27,3.0,9.2,86,0.00,-SN,,0.00,96.6,WeatherDisplay:10.37,2013-02-21 21:26:00,
2013-02-21 15:31:00,24.9,21.8,30.07,NE,38,3.4,5.0,88,0.00,-SN,,0.00,100.8,WeatherDisplay:10.37,2013-02-21 21:31:00,
2013-02-21 15:37:00,24.9,21.8,30.08,ENE,57,3.1,9.0,88,0.00,-SN,,0.00,107.8,WeatherDisplay:10.37,2013-02-21 21:37:00,
2013-02-21 15:42:00,24.8,22.0,30.07,East,80,2.0,4.6,89,0.00,-SN,,0.00,93.8,WeatherDisplay:10.37,2013-02-21 21:42:00,
2013-02-21 15:47:00,24.8,22.3,30.07,ENE,60,2.7,6.9,90,0.00,-SN,,0.00,98.0,WeatherDisplay:10.37,2013-02-21 21:47:00,
2013-02-21 15:52:00,24.7,22.2,30.06,ESE,109,2.5,11.5,90,0.00,-SN,,0.00,91.0,WeatherDisplay:10.37,2013-02-21 21:52:00,
2013-02-21 15:58:00,24.7,22.2,30.06,NE,47,4.5,10.0,90,0.00,-SN,,0.00,86.8,WeatherDisplay:10.37,2013-02-21 21:58:00,
2013-02-21 16:03:00,24.6,22.1,30.06,NE,36,3.0,7.0,90,0.00,,,0.00,71.4,WeatherDisplay:10.37,2013-02-21 22:03:00,
2013-02-21 16:08:00,24.6,22.3,30.06,East,82,3.8,7.0,91,0.00,,,0.00,65.8,WeatherDisplay:10.37,2013-02-21 22:08:00,
2013-02-21 16:13:00,24.6,22.3,30.06,NNE,27,5.4,6.9,91,0.00,,,0.00,51.8,WeatherDisplay:10.37,2013-02-21 22:13:00,
2013-02-21 16:19:00,24.6,22.3,30.06,NNE,18,1.9,8.1,91,0.00,,,0.00,51.8,WeatherDisplay:10.37,2013-02-21 22:19:00,
2013-02-21 16:24:00,24.6,22.3,30.05,NE,49,6.7,11.5,91,0.00,,,0.00,54.6,WeatherDisplay:10.37,2013-02-21 22:24:00,
2013-02-21 16:29:00,24.7,22.7,30.05,NNE,15,3.1,10.4,92,0.00,,,0.00,46.2,WeatherDisplay:10.37,2013-02-21 22:29:00,
2013-02-21 16:34:00,24.7,22.7,30.05,NNW,335,3.1,8.1,92,0.00,,,0.00,51.8,WeatherDisplay:10.37,2013-02-21 22:34:00,
2013-02-21 16:40:00,24.8,22.8,30.04,NE,38,4.1,6.9,92,0.00,,,0.00,39.2,WeatherDisplay:10.37,2013-02-21 22:40:00,
2013-02-21 16:45:00,24.8,22.8,30.05,ENE,68,2.3,4.6,92,0.00,,,0.00,32.2,WeatherDisplay:10.37,2013-02-21 22:45:00,
2013-02-21 16:50:00,24.9,22.9,30.04,ENE,65,2.5,5.8,92,0.00,,,0.00,35.0,WeatherDisplay:10.37,2013-02-21 22:50:00,
2013-02-21 16:55:00,25.0,23.0,30.04,NE,56,5.2,13.0,92,0.00,,,0.00,26.6,WeatherDisplay:10.37,2013-02-21 22:55:00,
2013-02-21 17:01:00,25.0,23.0,30.04,NE,51,3.2,13.0,92,0.00,-SN,,0.00,25.2,WeatherDisplay:10.37,2013-02-21 23:01:00,
2013-02-21 17:06:00,25.1,23.1,30.03,NE,39,3.0,17.0,92,0.00,-SN,-SN,0.00,19.6,WeatherDisplay:10.37,2013-02-21 23:06:00,
2013-02-21 17:11:00,25.1,23.1,30.03,ENE,58,5.3,10.4,92,0.00,-SN,,0.00,22.4,WeatherDisplay:10.37,2013-02-21 23:11:00,
2013-02-21 17:16:00,25.2,23.2,30.03,NE,51,4.4,12.7,92,0.00,-SN,,0.00,19.6,WeatherDisplay:10.37,2013-02-21 23:16:00,
2013-02-21 17:21:00,25.2,23.2,30.02,ENE,59,4.6,15.0,92,0.00,-SN,,0.00,16.8,WeatherDisplay:10.37,2013-02-21 23:21:00,
2013-02-21 17:27:00,25.2,23.2,30.02,NNE,14,5.6,10.4,92,0.00,-SN,,0.00,12.6,WeatherDisplay:10.37,2013-02-21 23:27:00,
2013-02-21 17:32:00,25.3,23.3,30.02,NE,48,5.9,10.4,92,0.00,-SN,,0.00,7.0,WeatherDisplay:10.37,2013-02-21 23:32:00,
2013-02-21 17:37:00,25.3,23.3,30.02,NE,44,3.8,6.9,92,0.00,-SN,,0.00,0.0,WeatherDisplay:10.37,2013-02-21 23:37:00,
2013-02-21 17:42:00,25.4,23.4,30.02,ENE,59,4.0,11.5,92,0.00,-SN,,0.00,0.0,WeatherDisplay:10.37,2013-02-21 23:42:00,
2013-02-21 17:48:00,25.4,23.7,30.02,NE,36,3.0,5.0,93,0.00,-SN,,0.00,0.0,WeatherDisplay:10.37,2013-02-21 23:48:00,
2013-02-21 17:53:00,25.4,23.7,30.02,NE,49,3.5,7.0,93,0.00,-SN,,0.00,0.0,WeatherDisplay:10.37,2013-02-21 23:53:00,
2013-02-21 17:58:00,25.4,23.7,30.02,NE,45,4.3,6.9,93,0.00,-SN,,0.00,0.0,WeatherDisplay:10.37,2013-02-21 23:58:00,
2013-02-21 18:03:00,25.4,23.7,30.01,NE,34,3.3,11.5,93,0.00,-SN,,0.00,0.0,WeatherDisplay:10.37,2013-02-22 00:03:00,
2013-02-21 18:09:00,25.4,23.7,30.01,WNW,294,2.2,10.4,93,0.00,-SN,,0.00,0.0,WeatherDisplay:10.37,2013-02-22 00:09:00,
2013-02-21 18:14:00,25.4,23.7,30.00,NNE,19,4.0,9.2,93,0.00,-SN,,0.00,0.0,WeatherDisplay:10.37,2013-02-22 00:14:00,
2013-02-21 18:19:00,25.4,23.7,30.00,NNE,26,4.1,9.0,93,0.00,-SN,,0.00,0.0,WeatherDisplay:10.37,2013-02-22 00:19:00,
2013-02-21 18:24:00,25.4,23.7,30.00,NNE,28,3.2,12.7,93,0.00,-SN,,0.00,0.0,WeatherDisplay:10.37,2013-02-22 00:24:00,
2013-02-21 18:30:00,25.4,23.7,30.00,NNE,31,2.6,15.0,93,0.00,-SN,,0.00,0.0,WeatherDisplay:10.37,2013-02-22 00:30:00,
2013-02-21 18:35:00,25.4,23.7,29.99,NE,40,2.1,8.1,93,0.00,-SN,,0.00,0.0,WeatherDisplay:10.37,2013-02-22 00:35:00,
2013-02-21 18:40:00,25.4,23.7,30.00,North,355,1.9,4.6,93,0.00,-SN,,0.00,0.0,WeatherDisplay:10.37,2013-02-22 00:40:00,
2013-02-21 18:45:00,25.4,23.7,29.99,NE,41,6.7,12.7,93,0.00,-SN,,0.00,0.0,WeatherDisplay:10.37,2013-02-22 00:45:00,
2013-02-21 18:51:00,25.4,23.7,29.99,NNE,24,4.2,13.8,93,0.00,-SN,,0.00,0.0,WeatherDisplay:10.37,2013-02-22 00:51:00,
2013-02-21 18:56:00,25.4,23.6,29.99,NE,34,3.0,14.0,93,0.00,-SN,-SN,0.00,0.0,WeatherDisplay:10.37,2013-02-22 00:56:00,
2013-02-21 19:01:00,25.3,23.3,29.99,NNE,19,2.8,4.6,92,0.00,-SN,,0.00,0.0,WeatherDisplay:10.37,2013-02-22 01:01:00,
2013-02-21 19:06:00,25.2,23.2,29.99,NE,48,5.8,11.5,92,0.00,-SN,,0.00,0.0,WeatherDisplay:10.37,2013-02-22 01:06:00,
2013-02-21 19:11:00,25.2,23.2,29.99,NNE,28,5.9,11.5,92,0.00,-SN,,0.00,0.0,WeatherDisplay:10.37,2013-02-22 01:11:00,
2013-02-21 19:16:00,25.2,23.2,29.99,NE,36,5.4,9.2,92,0.00,-SN,,0.00,0.0,WeatherDisplay:10.37,2013-02-22 01:16:00,
2013-02-21 19:22:00,25.2,23.2,29.98,NE,53,7.0,10.0,92,0.00,-SN,,0.00,0.0,WeatherDisplay:10.37,2013-02-22 01:22:00,
2013-02-21 19:27:00,25.1,23.1,29.98,NE,34,1.9,3.5,92,0.00,-SN,,0.00,0.0,WeatherDisplay:10.37,2013-02-22 01:27:00,
2013-02-21 19:32:00,25.1,23.1,29.99,NNE,16,2.1,5.8,92,0.00,-SN,,0.00,0.0,WeatherDisplay:10.37,2013-02-22 01:32:00,
2013-02-21 19:37:00,25.2,23.5,29.98,NNE,27,4.2,9.2,93,0.00,-SN,,0.00,0.0,WeatherDisplay:10.37,2013-02-22 01:37:00,
2013-02-21 19:43:00,25.2,23.2,29.99,NNE,32,7.7,9.2,92,0.00,-SN,,0.00,0.0,WeatherDisplay:10.37,2013-02-22 01:43:00,
2013-02-21 19:48:00,25.2,23.2,29.98,NE,45,2.3,9.2,92,0.00,-SN,,0.00,0.0,WeatherDisplay:10.37,2013-02-22 01:48:00,
2013-02-21 19:53:00,25.2,23.5,29.99,NE,41,3.9,9.2,93,0.00,-SN,,0.00,0.0,WeatherDisplay:10.37,2013-02-22 01:53:00,
2013-02-21 19:59:00,25.2,23.5,29.99,ENE,57,1.4,3.5,93,0.00,-SN,,0.00,0.0,WeatherDisplay:10.37,2013-02-22 01:59:00,
2013-02-21 20:04:00,25.2,23.5,29.99,NE,43,2.4,8.1,93,0.00,-SN,,0.00,0.0,WeatherDisplay:10.37,2013-02-22 02:04:00,
2013-02-21 20:09:00,25.2,23.5,29.99,NNE,31,4.1,8.0,93,0.00,-SN,,0.00,0.0,WeatherDisplay:10.37,2013-02-22 02:09:00,
2013-02-21 20:14:00,25.2,23.5,29.99,NNE,31,1.6,4.6,93,0.00,-SN,,0.00,0.0,WeatherDisplay:10.37,2013-02-22 02:14:00,
2013-02-21 20:20:00,25.2,23.5,30.00,NNE,24,0.3,1.2,93,0.00,-SN,,0.00,0.0,WeatherDisplay:10.37,2013-02-22 02:20:00,
2013-02-21 20:25:00,25.2,23.5,29.99,NE,36,1.3,3.5,93,0.00,-SN,,0.00,0.0,WeatherDisplay:10.37,2013-02-22 02:25:00,
2013-02-21 20:30:00,25.2,23.5,29.99,NNE,26,2.3,6.0,93,0.00,-SN,,0.00,0.0,WeatherDisplay:10.37,2013-02-22 02:30:00,
2013-02-21 20:35:00,25.2,23.5,29.99,ENE,62,3.8,8.1,93,0.00,-SN,,0.00,0.0,WeatherDisplay:10.37,2013-02-22 02:35:00,
2013-02-21 20:41:00,25.2,23.5,29.99,ENE,64,2.9,10.4,93,0.00,-SN,,0.00,0.0,WeatherDisplay:10.37,2013-02-22 02:41:00,
2013-02-21 20:46:00,25.2,23.5,29.98,NE,40,2.0,10.0,93,0.00,-SN,-SN,0.00,0.0,WeatherDisplay:10.37,2013-02-22 02:46:00,
2013-02-21 20:51:00,25.2,23.5,29.98,NE,38,3.0,5.8,93,0.00,-SN,,0.00,0.0,WeatherDisplay:10.37,2013-02-22 02:51:00,
2013-02-21 20:56:00,25.2,23.5,29.98,NE,34,2.0,9.0,93,0.00,-SN,-SN,0.00,0.0,WeatherDisplay:10.37,2013-02-22 02:56:00,
2013-02-21 21:01:00,25.2,23.5,29.98,NNE,25,4.2,8.1,93,0.00,,,0.00,0.0,WeatherDisplay:10.37,2013-02-22 03:01:00,
2013-02-21 21:06:00,25.1,23.4,29.98,NNE,21,3.8,8.1,93,0.00,,,0.00,0.0,WeatherDisplay:10.37,2013-02-22 03:06:00,
2013-02-21 21:11:00,25.0,23.3,29.98,NE,49,0.9,4.6,93,0.00,,,0.00,0.0,WeatherDisplay:10.37,2013-02-22 03:11:00,
2013-02-21 21:17:00,24.9,23.2,29.97,NE,35,1.7,6.9,93,0.00,,,0.00,0.0,WeatherDisplay:10.37,2013-02-22 03:17:00,
2013-02-21 21:22:00,24.9,23.2,29.97,NE,38,3.6,9.2,93,0.00,,,0.00,0.0,WeatherDisplay:10.37,2013-02-22 03:22:00,
2013-02-21 21:27:00,24.8,23.1,29.97,ENE,65,3.2,5.8,93,0.00,,,0.00,0.0,WeatherDisplay:10.37,2013-02-22 03:27:00,
2013-02-21 21:32:00,24.7,23.0,29.96,North,350,2.3,5.8,93,0.00,,,0.00,0.0,WeatherDisplay:10.37,2013-02-22 03:32:00,
2013-02-21 21:38:00,24.6,22.9,29.97,NNE,19,2.9,3.5,93,0.00,,,0.00,0.0,WeatherDisplay:10.37,2013-02-22 03:38:00,
2013-02-21 21:43:00,24.5,22.8,29.96,NE,53,2.1,5.8,93,0.00,,,0.00,0.0,WeatherDisplay:10.37,2013-02-22 03:43:00,
2013-02-21 21:48:00,24.5,23.0,29.96,NW,326,0.7,2.3,94,0.00,,,0.00,0.0,WeatherDisplay:10.37,2013-02-22 03:48:00,
2013-02-21 21:53:00,24.4,22.9,29.96,NNE,24,2.9,6.9,94,0.00,,,0.00,0.0,WeatherDisplay:10.37,2013-02-22 03:53:00,
2013-02-21 21:59:00,24.4,22.9,29.96,NNE,14,1.4,4.0,94,0.00,,,0.00,0.0,WeatherDisplay:10.37,2013-02-22 03:59:00,
2013-02-21 22:04:00,24.4,22.9,29.96,NNE,28,2.8,4.6,94,0.00, +SN,,0.00,0.0,WeatherDisplay:10.37,2013-02-22 04:04:00,
2013-02-21 22:09:00,24.4,22.9,29.95,North,5,1.7,6.9,94,0.00, +SN,,0.00,0.0,WeatherDisplay:10.37,2013-02-22 04:09:00,
2013-02-21 22:14:00,24.4,22.9,29.95,NE,50,1.9,4.6,94,0.00, +SN,,0.00,0.0,WeatherDisplay:10.37,2013-02-22 04:14:00,
2013-02-21 22:20:00,24.5,23.0,29.95,North,355,5.0,7.0,94,0.00, +SN,,0.00,0.0,WeatherDisplay:10.37,2013-02-22 04:20:00,
2013-02-21 22:25:00,24.5,23.0,29.95,NNE,25,2.7,6.0,94,0.00, +SN,,0.00,0.0,WeatherDisplay:10.37,2013-02-22 04:25:00,
2013-02-21 22:30:00,24.5,23.0,29.94,ENE,60,5.2,8.0,94,0.00, +SN,,0.00,0.0,WeatherDisplay:10.37,2013-02-22 04:30:00,
2013-02-21 22:35:00,24.5,23.0,29.94,NNW,340,1.7,5.8,94,0.00, +SN,,0.00,0.0,WeatherDisplay:10.37,2013-02-22 04:35:00,
2013-02-21 22:41:00,24.5,23.0,29.94,NNW,347,2.5,9.0,94,0.00, +SN,,0.00,0.0,WeatherDisplay:10.37,2013-02-22 04:41:00,
2013-02-21 22:46:00,24.5,23.0,29.93,NNE,30,2.0,12.0,94,0.00, +SN, +SN,0.00,0.0,WeatherDisplay:10.37,2013-02-22 04:46:00,
2013-02-21 22:51:00,24.6,23.1,29.93,NNE,28,3.0,9.2,94,0.00, +SN,,0.00,0.0,WeatherDisplay:10.37,2013-02-22 04:51:00,
2013-02-21 22:56:00,24.6,23.1,29.93,NNE,20,3.2,5.8,94,0.00, +SN,,0.00,0.0,WeatherDisplay:10.37,2013-02-22 04:56:00,
2013-02-21 23:00:00,24.6,23.1,29.93,NNE,13,2.7,5.0,94,0.00, +SN,,0.00,0.0,WeatherDisplay:10.37,2013-02-22 05:00:00,
2013-02-21 23:01:00,24.6,23.1,29.93,ENE,57,3.1,4.6,94,0.00,,,0.00,0.0,WeatherDisplay:10.37,2013-02-22 05:01:00,
2013-02-21 23:06:00,24.6,23.1,29.93,NNE,24,5.0,8.0,94,0.00,,,0.00,0.0,WeatherDisplay:10.37,2013-02-22 05:06:00,
2013-02-21 23:11:00,24.7,23.2,29.93,North,355,4.1,6.0,94,0.00,,,0.00,0.0,WeatherDisplay:10.37,2013-02-22 05:11:00,
2013-02-21 23:16:00,24.6,23.1,29.92,NNE,22,3.2,6.9,94,0.00,,,0.00,0.0,WeatherDisplay:10.37,2013-02-22 05:16:00,
2013-02-21 23:21:00,24.7,23.2,29.92,North,5,2.7,5.8,94,0.00,,,0.00,0.0,WeatherDisplay:10.37,2013-02-22 05:21:00,
2013-02-21 23:27:00,24.7,23.2,29.92,North,360,1.7,5.8,94,0.00,,,0.00,0.0,WeatherDisplay:10.37,2013-02-22 05:27:00,
2013-02-21 23:32:00,24.7,23.2,29.91,ESE,115,3.4,6.9,94,0.00,,,0.00,0.0,WeatherDisplay:10.37,2013-02-22 05:32:00,
2013-02-21 23:37:00,24.7,23.2,29.91,NNW,342,1.1,3.5,94,0.00,,,0.00,0.0,WeatherDisplay:10.37,2013-02-22 05:37:00,
2013-02-21 23:42:00,24.7,23.2,29.91,NNE,32,4.1,8.1,94,0.00,,,0.00,0.0,WeatherDisplay:10.37,2013-02-22 05:42:00,
2013-02-21 23:48:00,24.7,23.2,29.91,NE,45,1.3,3.5,94,0.00,,,0.00,0.0,WeatherDisplay:10.37,2013-02-22 05:48:00,
2013-02-21 23:53:00,24.7,23.2,29.91,NE,40,2.3,4.6,94,0.00,,,0.00,0.0,WeatherDisplay:10.37,2013-02-22 05:53:00,
2013-02-21 23:58:00,24.8,23.3,29.91,NE,44,0.9,2.3,94,0.00,,,0.00,0.0,WeatherDisplay:10.37,2013-02-22 05:58:00,